ROMMA est une association bénévole à but non lucratif. Votre soutien est indispensable : ADHERER à ROMMA ou FAIRE un DON

Chambon - (38, Isère)

Oisans (2460 m)   Longitude: 06° 10' 42" E   Latitude: 45° 01' 32" N Station partenaire n°803
 

Détail journalier du     <<     >>

Température Humidité Vent Dir Rafale Dir. rafale Neige 1 Neige 2
Heure (°C) (%) (km/h) (km/h) (cm) (cm)
01:00 -6.69712SSO20SO055
02:00 -6.9976SO16SO055
03:00 -7.1978NE15NE054
04:00 -7.5978NE13NE054
05:00 -7.99611NNE18NNE054
06:00 -8.89612NNE19NNE054
07:00 -9.29515NNE20NNE053
08:00 -9.17324NNE47NE054
09:00 -8.34528NE45NE054
10:00 -7.54021NNE36NNE054
11:00 -7.34121NNE28NE054
12:00 -6.2448NNE23NNE053
13:00 -7.2478NNE18NNE053
14:00 -6.8458N15N053
15:00 -7.1546N12N053
16:00 -6.9519NNE23NNE053
17:00 -7.45415NNE25NNE053
18:00 -7.13917NNE32NNE053
19:00 -7.03619NNE41NE053
20:00 -7.13321NE36NE053
21:00 -6.52620NNE36NE053
22:00 -8.6409NNE19NNE053
23:00 -9.2444NNE11NNE053
minuit -9.7518SSO23OSO053

Graphique du 12-11-2019

 

Serveur OMMA